This demonstration page uses our WeatherBlox Daily Observations layout. Learn more.

Left ArrowRight Arrow

Hourly Observations for October 8, 2016

Temp ( °F °C ) Dew Point ( °F °C ) Humidity (%) Winds ( mph kmh ) Pressure ( in mb ) Visibility ( mi km ) Precip ( " mm )
12:54 am 00:54 Clear 48 8.9 40 4.4 74 74 Calm 30.27 1025 10 16.0934 0 0
1:54 am 01:54 Clear 46 7.8 40 4.4 79 79 SSE 3 6 30.27 1025 10 16.0934 0 0
2:54 am 02:54 Clear 46 7.8 39 3.9 77 77 SSE 5 7 30.27 1025 10 16.0934 0 0
3:54 am 03:54 Clear 46 7.8 40 4.4 79 79 S 6 9 30.27 1025 10 16.0934 0 0
4:54 am 04:54 Clear 44 6.7 39 3.9 83 83 S 6 9 30.27 1025 10 16.0934 0 0
5:54 am 05:54 Clear 46 7.8 40 4.4 79 79 SSW 7 11 30.27 1025 10 16.0934 0 0
6:54 am 06:54 Clear 45 7.2 40 4.4 83 83 SSW 7 11 30.28 1025 10 16.0934 0 0
7:54 am 07:54 Sunny 46 7.8 40 4.4 79 79 SSW 10 17 30.28 1026 10 16.0934 0 0
8:54 am 08:54 Sunny 50 10 41 5 71 71 SW 13 20 30.29 1026 10 16.0934 0 0
9:54 am 09:54 Sunny 56 13.3 40 4.4 55 55 SW 13 20 30.29 1026 10 16.0934 0 0
10:54 am 10:54 Sunny 62 16.7 40 4.4 44 44 SSW 12 19 30.28 1025 10 16.0934 0 0
11:54 am 11:54 Sunny 67 19.4 35 1.7 31 31 SW 22 35 30.26 1025 10 16.0934 0 0
12:54 pm 12:54 Sunny 71 21.7 33 0.6 25 25 SW 24 39 30.23 1024 10 16.0934 0 0
1:54 pm 13:54 Sunny 73 22.8 32 0 22 22 SW 18 30 30.21 1023 10 16.0934 0 0
2:54 pm 14:54 Sunny 75 23.9 33 0.6 22 22 SSW 16 26 30.18 1022 10 16.0934 0 0
3:54 pm 15:54 Sunny 76 24.4 33 0.6 21 21 SW 18 30 30.16 1022 10 16.0934 0 0
4:54 pm 16:54 Sunny 76 24.4 34 1.1 22 22 SW 16 26 30.17 1022 10 16.0934 0 0
5:54 pm 17:54 Sunny 74 23.3 37 2.8 26 26 SW 8 13 30.17 1022 10 16.0934 0 0
6:54 pm 18:54 Sunny 63 17.2 42 5.6 47 47 S 7 11 30.19 1022 10 16.0934 0 0
7:54 pm 19:54 Clear 59 15 43 6.1 56 56 S 6 9 30.21 1023 10 16.0934 0 0
8:54 pm 20:54 Clear 57 13.9 42 5.6 58 58 S 5 7 30.24 1024 10 16.0934 0 0
9:54 pm 21:54 Clear 59 15 41 5 51 51 Calm 30.24 1024 10 16.0934 0 0
10:54 pm 22:54 Clear 59 15 41 5 51 51 W 3 6 30.27 1025 10 16.0934 0 0
11:54 pm 23:54 Clear 52 11.1 43 6.1 72 72 Calm 30.28 1026 10 16.0934 0 0

Powered by AerisWeather